Retour au catalogue

FENGYUN 1C DEB

ActifPO
NORAD 37441·DEBRIS·🇨🇳 China

Lancé May 10, 1999 depuis Taiyuan Satellite Launch Center

Loading…

Prochains Passages (prochaines 24 heures)

TLE

FraisSource: Space-Track

Époque: Sep 12, 2026, 06:48 UTC

1 37441U 99025EHK 26255.28333525  .00000556  00000-0  82118-3 0  9994
2 37441  99.1461  70.8348 0508069 122.1220 243.0251 13.14715920857661

Suivez FENGYUN 1C DEB en temps réel avec AllMySat

Download on the App Store